Regional Weather Roundup
Issued by NWS State College, PA

Home | Current Version | Previous Version | Graphics & Text | Print | Product List | Glossary Off
Versions: 1 2 3 4 5 6 7 8 9 10 11 12 13 14 15 16 17 18 19 20 21 22 23 24 25 26 27 28 29 30 31 32 33 34 35 36 37 38 39 40 41 42 43 44 45 46 47 48 49 50

000
ASUS41 KCTP 261403
RWRCTP

REGIONAL WEATHER ROUNDUP
NATIONAL WEATHER SERVICE STATE COLLEGE PA
1000 AM EDT THU MAY 26 2016

Note: "fair" indicates few or no clouds below 12,000 feet with no
significant weather and/or obstructions to visibility.

* = STATION THAT DOES NOT REPORT PRECIPITATION /E.G. RAIN...SNOW...ETC/
    THUNDER OR FOG.

PAZ002>004-007>009-013>016-020>023-029>032-261500-
WESTERN PENNSYLVANIA

CITY           SKY/WX    TMP DP  RH WIND       PRES   REMARKS
ERIE           PTSUNNY   77  63  61 S10       30.03S
MEADVILLE      MOSUNNY   71  63  75 VRB6      30.07F
FRANKLIN*      PTSUNNY   72  61  68 S12       30.11F
NEW CASTLE     FAIR      74  63  68 S8        30.09F
BEAVER COUNTY  SUNNY     72  63  73 S9        30.10S
BUTLER*        CLOUDY    72  59  64 SW9       30.13F
PITTSBURGH INT CLOUDY    71  60  68 SW8       30.10F
PITTSBURGH     CLOUDY    69  59  70 S9        30.10F
INDIANA*       PTSUNNY   73  59  60 SW10      30.16S
LATROBE        PTSUNNY   73  61  64 SW12G21   30.14S
WASHINGTON CO* MOSUNNY   68  61  77 S6        30.12F
$$

PAZ004>006-010>012-017>019-024>028-033>037-041-042-045-046-049>053-261500-
CENTRAL PENNSYLVANIA

CITY           SKY/WX    TMP DP  RH WIND       PRES   REMARKS
BRADFORD       PTSUNNY   68  56  65 S6        30.13F
DUBOIS         MOSUNNY   72  57  59 SE5       30.12F
CLEARFIELD     PTSUNNY   71  53  52 CALM      30.13F
JOHNSTOWN      SUNNY     71  52  50 S13       30.16F
ALTOONA        PTSUNNY   76  53  44 SW6       30.14F
STATE COLLEGE  SUNNY     72  57  60 CALM      30.12F
WILLIAMSPORT   CLOUDY    67  54  63 CALM      30.10F
SELINSGROVE    CLOUDY    69  57  65 CALM      30.12F
FT INDIANTOWN  PTSUNNY   72  59  64 VRB1      30.11F
CAPITAL CITY   CLOUDY    75  58  55 VRB3      30.11F
HARRISBURG     MOSUNNY   73  58  59 CALM      30.10F
YORK           SUNNY     77  60  55 CALM      30.11F
$$

PAZ038>040-043-044-047-048-054-055-060>062-067>071-261500-
EASTERN PENNSYLVANIA

CITY           SKY/WX    TMP DP  RH WIND       PRES   REMARKS
SCRANTON       CLOUDY    70  57  63 E3        30.12F
MOUNT POCONO   CLOUDY    70  48  45 W6        30.17S
ALLENTOWN      CLOUDY    77  57  50 CALM      30.12F
QUAKERTOWN*    MOSUNNY   79  59  50 CALM      30.13F
READING        CLOUDY    77  56  48 CALM      30.10F
LANCASTER      SUNNY     77  57  50 VRB3      30.11F
COATESVILLE    MOSUNNY   77  59  53 CALM      30.14F
POTTSTOWN      MOSUNNY   77  60  55 CALM      30.13F
BLUE BELL      SUNNY     79  59  50 CALM      30.11F
DOYLESTOWN     MOSUNNY   78  55  44 SW3       30.11F
WILLOW GROVE   NOT AVBL
NORTH PHILA    SUNNY     80  60  50 VRB6      30.13F
PHILADELPHIA   PTSUNNY   76  58  53 SW6       30.12F
$$




USA.gov is the U.S. government's official web portal to all federal, state and local government web resources and services.